Weather History for KALI - October, 2013

Change the Weather History Date:

Sunday, October 27, 2013

  Actual Average Record
Temperature  
Mean Temperature 74 °F -  
Max Temperature 89 °F 81 °F 91 °F (2004)
Min Temperature 60 °F 61 °F 44 °F (1997)
Cooling Degree Days 9    
Growing Degree Days 24 (Base 50)    
Moisture  
Dew Point 64 °F    
Average Humidity 88    
Maximum Humidity 100    
Minimum Humidity 42    
Precipitation  
Precipitation 0.01 in - - ()
Sea Level Pressure  
Sea Level Pressure 30.03 in    
Wind  
Wind Speed 2 mph (South)    
Max Wind Speed 12 mph    
Max Gust Speed -    
Visibility 4 miles    
Events Fog , Rain    
Averages and records for this station are not official NWS values.
T = Trace of Precipitation, MM = Missing Value Source: NWS Daily Summary

Daily Weather History Graph

Daily Weather History Graph

Search for Another Location

Airport or City:

Trip Planner

Search our weather history database for the weather conditions in past years. The results will help you decide how hot, cold, wet, or windy it might be!

Date:

Astronomy

Oct. 27, 2013 Rise Set
Actual Time 7:39 AM CDT 6:51 PM CDT
Civil Twilight 7:15 AM CDT 7:15 PM CDT
Nautical Twilight 6:48 AM CDT 7:43 PM CDT
Astronomical Twilight 6:20 AM CDT 8:10 PM CDT
Moon 1:12 AM CDT (10/27) 2:29 PM CDT (10/27)
Length of Visible Light 11h 59m
Length of Day
11h 11m
Last Quarter, 43% of the Moon is Illuminated
Oct 27
Last Quarter
Nov 3
New
Nov 9
First Quarter
Nov 17
Full
Nov 25
Last Quarter

Hourly Weather History & Observations

Time (CDT) Temp. Heat Index Dew Point Humidity Pressure Visibility Wind Dir Wind Speed Gust Speed Precip Events Conditions
12:53 AM 66.9 °F - 64.9 °F 93% 30.05 in 8.0 mi Calm Calm - N/A   Clear
1:20 AM 64.4 °F - 64.4 °F 100% 30.05 in 1.8 mi Calm Calm - N/A   Clear
1:24 AM 62.6 °F - 62.6 °F 100% 30.05 in 0.8 mi South 3.5 mph - N/A   Mist
1:39 AM 64.4 °F - 64.4 °F 100% 30.04 in 0.5 mi Calm Calm - N/A Fog Fog
1:51 AM 62.6 °F - 62.6 °F 100% 30.04 in 0.2 mi Calm Calm - N/A Fog Fog
1:53 AM 62.1 °F - 62.1 °F 100% 30.04 in 0.2 mi Calm Calm - N/A Fog Fog
2:09 AM 64.4 °F - 64.4 °F 100% 30.04 in 0.8 mi Calm Calm - 0.00 in Rain Light Rain
2:13 AM 64.4 °F - 64.4 °F 100% 30.04 in 2.5 mi Calm Calm - 0.00 in Rain Light Rain
2:19 AM 62.6 °F - 62.6 °F 100% 30.04 in 0.8 mi Calm Calm - 0.00 in   Mist
2:22 AM 62.6 °F - 62.6 °F 100% 30.04 in 0.2 mi Calm Calm - 0.00 in Fog Fog
2:53 AM 63.0 °F - 63.0 °F 100% 30.03 in 0.2 mi South 3.5 mph - 0.00 in Fog Fog
3:03 AM 62.6 °F - 62.6 °F 100% 30.03 in 0.5 mi Calm Calm - 0.00 in Fog , Rain Light Rain
3:09 AM 62.6 °F - 62.6 °F 100% 30.03 in 1.0 mi Calm Calm - 0.00 in Rain Light Rain
3:21 AM 62.6 °F - 62.6 °F 100% 30.03 in 0.5 mi Calm Calm - 0.00 in Fog Fog
3:33 AM 62.6 °F - 62.6 °F 100% 30.03 in 0.2 mi Calm Calm - 0.00 in Fog , Rain Light Rain
3:45 AM 62.6 °F - 62.6 °F 100% 30.02 in 0.5 mi Calm Calm - 0.00 in Fog Fog
3:53 AM 62.1 °F - 62.1 °F 100% 30.02 in 0.5 mi Calm Calm - 0.00 in Fog Fog
4:02 AM 60.8 °F - 60.8 °F 100% 30.02 in 0.2 mi Calm Calm - N/A Fog Fog
4:08 AM 60.8 °F - 60.8 °F 100% 30.03 in 0.2 mi Calm Calm - N/A Fog Fog
4:53 AM 63.0 °F - 63.0 °F 100% 30.02 in 0.2 mi Calm Calm - N/A Fog Fog
5:53 AM 63.0 °F - 63.0 °F 100% 30.03 in 0.2 mi Calm Calm - 0.01 in Fog Fog
6:35 AM 64.4 °F - 64.4 °F 100% 30.05 in 0.5 mi North 3.5 mph - N/A Fog Fog
6:49 AM 64.4 °F - 64.4 °F 100% 30.05 in 0.2 mi Calm Calm - N/A Fog Fog
6:53 AM 64.0 °F - 64.0 °F 100% 30.04 in 0.2 mi Calm Calm - N/A Fog Fog
7:53 AM 64.0 °F - 64.0 °F 100% 30.04 in 0.2 mi Calm Calm - N/A Fog Fog
8:53 AM 66.0 °F - 66.0 °F 100% 30.06 in 0.2 mi Calm Calm - N/A Fog Fog
9:16 AM 66.2 °F - 66.2 °F 100% 30.07 in 0.8 mi Calm Calm - N/A   Mist
9:29 AM 68.0 °F - 66.2 °F 94% 30.08 in 2.0 mi Calm Calm - N/A   Overcast
9:37 AM 68.0 °F - 68.0 °F 100% 30.08 in 4.0 mi Calm Calm - N/A   Overcast
9:53 AM 70.0 °F - 69.1 °F 97% 30.08 in 10.0 mi Calm Calm - N/A   Scattered Clouds
10:53 AM 80.1 °F 82.7 °F 68.0 °F 67% 30.07 in 10.0 mi South 8.1 mph - N/A   Clear
11:53 AM 82.0 °F 84.5 °F 66.9 °F 60% 30.06 in 10.0 mi SSW 8.1 mph - N/A   Partly Cloudy
12:53 PM 84.9 °F 85.9 °F 63.0 °F 48% 30.04 in 10.0 mi WSW 5.8 mph - N/A   Scattered Clouds
1:53 PM 87.1 °F 87.5 °F 62.1 °F 43% 30.01 in 10.0 mi Calm Calm - N/A   Partly Cloudy
2:53 PM 84.9 °F 85.0 °F 61.0 °F 44% 29.98 in 10.0 mi Calm Calm - N/A   Scattered Clouds
3:53 PM 86.0 °F 86.3 °F 62.1 °F 44% 29.96 in 10.0 mi South 5.8 mph - N/A   Overcast
4:53 PM 88.0 °F 88.4 °F 62.1 °F 42% 29.95 in 10.0 mi South 8.1 mph - N/A   Mostly Cloudy
5:53 PM 84.9 °F 85.9 °F 63.0 °F 48% 29.94 in 10.0 mi SSE 11.5 mph - N/A   Clear
6:53 PM 80.1 °F 82.7 °F 68.0 °F 67% 29.96 in 10.0 mi SSE 11.5 mph - N/A   Clear
7:53 PM 77.0 °F - 68.0 °F 74% 29.98 in 10.0 mi SE 10.4 mph - N/A   Clear
8:53 PM 75.0 °F - 68.0 °F 79% 29.99 in 10.0 mi SSE 8.1 mph - N/A   Clear
9:53 PM 73.0 °F - 69.1 °F 87% 30.00 in 10.0 mi SSE 8.1 mph - N/A   Clear
10:53 PM 73.0 °F - 69.1 °F 87% 30.00 in 10.0 mi SSE 8.1 mph - N/A   Clear
11:53 PM 73.0 °F - 69.1 °F 87% 29.99 in 10.0 mi South 8.1 mph - N/A   Clear